GFSFLT2_prec_cthk_159.txt.gz
RH
53 50 45 39 36 35 34 34 34 35 34 31 25 20 19 18 18 18 20 21 23 25 27 30 34 40 44 47 50 53 51 47
47 43 39 35 33 33 32 32 33 31 26 19 19 18 17 16 16 16 16 16 16 17 18 21 25 29 34 41 46 52 54 53
39 38 36 34 33 31 31 31 28 21 17 16 16 15 15 15 15 15 15 15 14 14 14 15 15 17 20 26 34 41 48 50
35 34 33 31 29 28 25 19 17 16 16 15 15 15 15 15 14 14 13 13 13 14 14 15 15 15 15 16 19 22 32 43
32 30 28 26 23 18 16 15 15 15 16 16 15 15 14 12 11 11 11 11 11 12 12 13 13 14 14 15 15 16 18 20
28 27 24 19 17 16 16 16 16 17 16 15 14 13 12 11 11 11 11 10 10 10 10 11 11 11 12 12 13 14 15 16
25 21 19 18 17 17 18 18 17 16 15 15 15 14 13 13 13 13 12 12 12 11 11 11 11 11 11 11 11 11 12 13
19 18 19 19 20 21 20 20 19 19 18 18 17 17 16 15 15 15 14 14 12 11 11 11 11 10 10 10 10 10 10 10
18 20 23 25 26 24 23 22 22 22 22 22 21 19 19 18 18 17 15 13 13 14 15 15 14 14 13 12 12 11 11 10
21 25 28 29 27 25 25 25 25 25 25 24 23 22 20 20 18 16 15 18 18 19 18 18 17 17 16 15 14 13 11 11
27 30 31 29 28 28 28 28 28 28 27 27 25 23 21 19 17 15 18 19 20 21 21 21 21 21 20 20 19 18 16 14
30 32 33 31 31 31 30 30 30 29 28 27 26 24 21 17 16 16 20 19 20 24 25 26 26 26 26 25 25 25 26 25
33 35 34 33 33 32 32 32 31 30 29 28 26 23 19 16 15 16 18 18 20 25 27 28 30 32 31 31 34 39 41 39
41 39 36 36 35 35 34 33 33 32 31 29 26 21 17 15 14 15 16 17 21 26 32 33 36 38 41 42 43 52 52 43
41 40 40 38 38 38 37 37 36 35 32 29 25 20 16 15 15 14 16 18 22 29 36 41 44 49 55 56 58 57 55 61
39 42 43 42 42 43 42 40 39 36 32 29 24 19 16 15 14 14 17 19 23 27 33 42 49 57 64 68 69 69 66 67
43 48 46 46 48 48 45 43 42 37 32 26 23 20 16 15 13 13 15 20 19 22 30 38 54 63 69 72 73 75 76 76
49 51 52 53 54 52 50 49 44 39 30 26 24 20 16 13 13 13 13 15 15 17 22 27 56 68 73 75 75 74 77 83
58 55 55 59 60 58 56 51 45 37 30 27 23 19 16 14 14 14 15 13 13 15 16 25 55 71 78 78 78 76 76 83
54 54 59 63 64 63 58 50 42 36 33 26 21 20 17 15 15 16 16 12 13 14 14 24 38 61 77 80 81 77 77 83

GFSFLT2_prec_cthk_165.txt.gz
RH
52 54 55 53 55 46 37 33 33 31 30 30 31 29 21 16 17 16 15 15 14 14 14 14 14 14 14 15 19 24 28 37
53 55 57 58 51 39 34 32 30 29 28 29 28 19 15 15 15 15 14 13 12 12 12 11 11 11 12 12 13 14 16 27
58 60 58 53 42 34 31 30 29 27 28 26 18 15 15 14 13 11 11 10 10 10 9 9 8 8 9 9 11 13 17 21
57 53 50 42 36 31 29 28 26 27 23 16 15 14 12 11 11 12 12 11 10 10 9 9 9 9 9 9 10 10 10 10
55 50 44 37 33 30 29 28 26 22 15 15 14 12 13 15 16 16 14 14 13 13 13 13 12 12 12 12 11 11 11 13
53 48 42 34 30 32 29 26 21 15 15 14 13 16 19 19 19 19 18 16 16 16 15 14 14 15 15 15 15 14 16 15
54 49 40 32 30 30 26 19 15 16 15 16 19 21 22 22 22 22 20 19 18 17 16 15 14 15 15 15 15 14 14 15
55 49 37 32 29 24 19 14 16 18 19 21 23 24 24 24 23 22 20 18 18 16 15 14 15 16 16 17 16 16 16 15
54 42 36 32 24 19 15 16 20 21 23 24 25 26 25 25 24 23 20 19 17 16 15 17 18 18 19 20 20 20 20 20
49 39 35 30 21 17 17 19 22 24 26 27 27 26 27 26 25 23 21 19 18 17 18 17 18 18 19 19 19 21 22 22
44 33 32 23 19 19 20 22 22 25 27 28 27 29 28 28 26 23 21 20 19 19 18 18 17 17 16 14 18 21 22 24
41 35 27 21 21 22 24 23 24 27 29 30 31 31 31 30 27 24 22 21 20 18 16 17 20 20 13 17 17 20 24 29
43 35 25 23 24 26 28 27 30 33 33 33 34 34 33 31 28 26 23 22 20 18 16 18 19 19 20 16 18 23 28 35
42 33 25 26 29 34 34 34 36 36 36 37 37 38 37 33 29 26 23 22 22 18 18 15 19 22 21 19 18 20 31 38
39 33 28 30 35 36 35 35 35 35 38 40 41 41 39 34 30 26 22 22 21 19 17 15 18 19 18 21 24 26 29 43
39 35 34 35 34 36 35 37 38 39 42 43 46 44 39 34 30 25 22 20 18 17 15 15 15 17 17 23 33 41 43 43
41 38 38 36 35 37 36 38 39 41 44 47 48 45 39 35 29 26 21 20 16 15 13 16 18 15 19 29 36 43 54 62
43 41 40 38 36 37 40 43 44 48 51 53 53 46 39 35 29 25 22 18 15 15 13 20 19 15 18 29 34 40 54 70
46 43 42 40 38 40 43 46 50 56 56 58 54 48 44 35 29 25 20 17 14 14 18 19 21 15 19 29 31 37 56 74
51 49 47 43 43 46 49 55 58 59 61 58 50 46 39 34 30 23 19 15 13 14 21 19 22 25 24 24 27 36 50 73

GFSFLT2_prec_cthk_168.txt.gz
RH
41 45 49 52 54 51 47 41 33 30 29 28 27 27 27 21 16 15 15 15 13 12 12 12 11 11 11 11 12 12 13 15
48 51 51 50 49 47 45 36 31 29 28 26 26 27 23 17 14 13 12 11 10 10 10 10 9 9 8 8 8 9 11 14
50 50 51 51 51 49 41 33 29 28 28 26 25 22 18 14 12 12 12 11 12 12 11 10 10 10 10 9 9 9 9 11
50 51 54 54 51 44 36 30 28 27 26 25 23 17 13 11 12 12 13 14 14 13 13 13 13 13 13 13 13 12 12 11
50 55 58 52 46 39 33 30 27 25 25 24 18 12 11 12 14 16 18 18 17 17 17 16 16 15 15 14 14 14 13 13
54 57 55 49 43 38 34 29 26 25 24 20 13 12 13 16 19 21 21 20 20 19 18 16 15 15 15 14 14 14 14 14
56 58 53 49 44 41 34 29 26 25 21 13 13 14 18 21 22 22 22 21 21 19 17 15 15 14 14 13 13 13 14 14
57 57 52 49 46 42 34 28 26 22 14 13 15 20 22 23 24 24 23 22 21 19 18 16 17 16 14 14 13 14 15 16
56 56 53 49 47 39 33 29 23 16 14 14 19 24 25 26 25 24 24 23 22 20 19 18 17 15 14 13 13 15 15 17
56 55 53 50 45 37 33 29 19 15 15 17 23 25 27 27 26 25 25 25 23 22 20 18 17 15 13 12 13 14 15 17
56 56 53 48 43 34 31 24 17 17 17 20 24 27 28 28 27 27 28 27 25 22 20 18 15 13 12 11 11 12 15 19
55 55 54 48 41 33 28 19 18 19 20 23 27 29 30 30 31 32 31 28 25 22 19 16 16 13 12 10 10 13 17 20
52 54 52 46 41 35 25 21 22 22 24 27 30 35 36 35 35 36 33 30 26 22 18 16 17 14 11 10 10 15 17 24
51 51 50 45 41 35 26 24 24 26 28 33 34 36 35 35 37 38 35 30 26 22 19 17 16 14 12 13 14 14 19 20
49 50 49 47 43 36 28 27 26 29 32 36 36 35 34 36 40 40 35 30 25 22 19 16 14 14 16 17 20 22 18 17
54 53 49 49 44 34 28 27 28 34 38 38 36 35 35 41 45 40 35 28 25 22 19 18 16 12 12 16 22 23 24 23
58 56 53 50 43 34 29 31 34 36 37 36 36 36 41 48 45 39 33 29 25 21 21 19 14 12 10 15 20 23 29 32
58 58 56 52 45 37 34 35 37 37 36 38 38 41 50 52 44 38 33 28 24 22 20 17 14 13 10 16 20 25 30 35
58 59 57 56 50 43 39 39 39 40 41 42 45 51 58 47 42 37 31 26 23 19 19 14 16 14 14 14 21 24 34 38
62 61 62 61 55 50 46 45 44 45 47 49 52 60 54 46 41 35 30 25 19 17 16 13 14 15 16 14 21 27 35 42

GFSFLT2_prec_cthk_171.txt.gz
RH
36 35 35 40 46 53 54 47 41 35 31 28 26 26 26 26 22 17 14 13 12 11 10 10 10 9 8 8 8 9 10 11
38 38 41 45 50 51 48 42 40 35 30 27 26 26 25 23 20 14 11 11 11 11 11 11 10 10 9 9 8 8 8 8
42 44 46 50 51 49 48 44 39 32 28 26 26 25 23 20 14 12 12 12 12 13 14 13 13 13 13 13 13 13 12 12
45 48 53 52 51 48 46 43 37 31 27 25 25 24 21 16 12 12 12 13 15 17 17 18 18 17 16 15 14 14 14 14
43 49 52 51 51 51 48 40 34 31 28 25 24 22 18 13 14 14 15 17 19 20 20 19 18 17 15 14 13 13 13 13
44 50 52 51 55 52 44 39 34 30 27 26 23 20 15 13 15 16 18 21 22 22 21 20 19 17 16 14 13 13 13 13
44 48 51 54 54 47 45 40 37 32 27 25 22 18 13 14 16 19 21 22 23 22 21 19 18 17 16 14 13 13 13 14
45 52 52 52 51 51 48 44 39 35 29 24 20 14 13 15 20 22 23 25 24 23 21 20 19 18 18 16 15 15 15 15
49 58 55 54 52 51 49 47 43 36 31 24 18 13 14 18 23 25 27 27 26 24 23 22 21 19 18 16 14 13 14 17
54 58 58 55 54 53 50 49 44 38 30 25 15 14 16 21 26 28 28 28 27 25 26 25 22 19 17 15 13 13 15 16
52 57 61 61 57 52 49 47 43 35 29 22 15 16 19 23 26 28 28 29 29 29 29 27 23 19 17 14 12 13 14 16
57 57 56 57 58 53 48 46 41 36 27 18 17 18 22 25 28 30 32 33 32 30 29 26 23 19 17 14 14 14 16 18
54 58 59 56 55 53 49 46 42 38 27 19 19 21 25 29 32 31 34 33 32 30 29 26 22 19 16 14 14 14 16 15
52 55 61 58 59 55 50 46 44 41 28 21 22 25 29 33 35 34 35 34 32 31 31 26 22 20 17 15 13 13 13 14
45 49 56 62 58 52 48 48 46 42 28 24 26 28 33 36 37 36 36 33 34 34 31 26 22 18 16 15 16 15 12 11
47 46 49 59 55 50 50 50 49 41 29 27 28 30 35 38 39 36 38 38 38 35 29 25 22 18 15 13 14 16 17 16
53 50 54 54 52 53 55 54 51 41 33 30 30 33 36 39 39 43 45 41 39 33 28 24 19 16 13 10 10 13 18 21
59 56 60 61 53 58 58 55 51 44 38 34 36 39 40 42 46 48 45 43 37 31 26 21 18 15 11 9 11 15 20 23
61 63 65 65 64 65 62 57 54 49 42 39 43 44 47 48 48 50 49 42 35 31 25 21 16 12 10 10 11 16 22 27
60 67 75 75 72 66 63 60 59 56 50 48 49 52 53 50 54 56 49 41 35 29 23 17 13 11 10 10 11 18 23 30